Year,Month,Day,Hour,Minute,Value (Times are PST for temperature in C)
2015,01,30,00,00,2.50
2015,01,30,00,01,2.50
2015,01,30,00,02,2.50
2015,01,30,00,03,2.50
2015,01,30,00,04,2.50
2015,01,30,00,05,2.50
2015,01,30,00,06,2.50
2015,01,30,00,07,2.40
2015,01,30,00,08,2.40
2015,01,30,00,09,2.40
2015,01,30,00,10,2.40
2015,01,30,00,11,2.40
2015,01,30,00,12,2.40
2015,01,30,00,13,2.50
2015,01,30,00,14,2.50
2015,01,30,00,15,2.50
2015,01,30,00,16,2.50
2015,01,30,00,17,2.60
2015,01,30,00,18,2.60
2015,01,30,00,19,2.60
2015,01,30,00,20,2.60
2015,01,30,00,21,2.60
2015,01,30,00,22,2.70
2015,01,30,00,23,2.70
2015,01,30,00,24,2.70
2015,01,30,00,25,2.70
2015,01,30,00,26,2.70
2015,01,30,00,27,2.70
2015,01,30,00,28,2.70
2015,01,30,00,29,2.70
2015,01,30,00,30,2.70
2015,01,30,00,31,2.70
2015,01,30,00,32,2.70
2015,01,30,00,33,2.70
2015,01,30,00,34,2.70
2015,01,30,00,35,2.60
2015,01,30,00,36,2.60
2015,01,30,00,37,2.60
2015,01,30,00,38,2.60
2015,01,30,00,39,2.60
2015,01,30,00,40,2.60
2015,01,30,00,41,2.50
2015,01,30,00,42,2.50
2015,01,30,00,43,2.50
2015,01,30,00,44,2.50
2015,01,30,00,45,2.50
2015,01,30,00,46,2.50
2015,01,30,00,47,2.50
2015,01,30,00,48,2.50
2015,01,30,00,49,2.50
2015,01,30,00,50,2.40
2015,01,30,00,51,2.40
2015,01,30,00,52,2.40
2015,01,30,00,53,2.40
2015,01,30,00,54,2.40
2015,01,30,00,55,2.40
2015,01,30,00,56,2.40
2015,01,30,00,57,2.30
2015,01,30,00,58,2.30
2015,01,30,00,59,2.30
2015,01,30,01,00,2.30
2015,01,30,01,01,2.20
2015,01,30,01,02,2.20
2015,01,30,01,03,2.20
2015,01,30,01,04,2.20
2015,01,30,01,05,2.20
2015,01,30,01,06,2.20
2015,01,30,01,07,2.20
2015,01,30,01,08,2.20
2015,01,30,01,09,2.20
2015,01,30,01,10,2.20
2015,01,30,01,11,2.20
2015,01,30,01,12,2.20
2015,01,30,01,13,2.20
2015,01,30,01,14,2.20
2015,01,30,01,15,2.20
2015,01,30,01,16,2.20
2015,01,30,01,17,2.20
2015,01,30,01,18,2.20
2015,01,30,01,19,2.20
2015,01,30,01,20,2.20
2015,01,30,01,21,2.20
2015,01,30,01,22,2.20
2015,01,30,01,23,2.20
2015,01,30,01,24,2.20
2015,01,30,01,25,2.20
2015,01,30,01,26,2.20
2015,01,30,01,27,2.20
2015,01,30,01,28,2.30
2015,01,30,01,29,2.30
2015,01,30,01,30,2.30
2015,01,30,01,31,2.30
2015,01,30,01,32,2.30
2015,01,30,01,33,2.30
2015,01,30,01,34,2.30
2015,01,30,01,35,2.30
2015,01,30,01,36,2.30
2015,01,30,01,37,2.30
2015,01,30,01,38,2.30
2015,01,30,01,39,2.20
2015,01,30,01,40,2.20
2015,01,30,01,41,2.20
2015,01,30,01,42,2.20
2015,01,30,01,43,2.20
2015,01,30,01,44,2.20
2015,01,30,01,45,2.30
2015,01,30,01,46,2.30
2015,01,30,01,47,2.30
2015,01,30,01,48,2.30
2015,01,30,01,49,2.30
2015,01,30,01,50,2.30
2015,01,30,01,51,2.20
2015,01,30,01,52,2.20
2015,01,30,01,53,2.20
2015,01,30,01,54,2.20
2015,01,30,01,55,2.20
2015,01,30,01,56,2.20
2015,01,30,01,57,2.20
2015,01,30,01,58,2.20
2015,01,30,01,59,2.20
2015,01,30,02,00,2.20
2015,01,30,02,01,2.20
2015,01,30,02,02,2.20
2015,01,30,02,03,2.20
2015,01,30,02,04,2.20
2015,01,30,02,05,2.20
2015,01,30,02,06,2.20
2015,01,30,02,07,2.20
2015,01,30,02,08,2.20
2015,01,30,02,09,2.20
2015,01,30,02,10,2.20
2015,01,30,02,11,2.30
2015,01,30,02,12,2.30
2015,01,30,02,13,2.30
2015,01,30,02,14,2.30
2015,01,30,02,15,2.30
2015,01,30,02,16,2.30
2015,01,30,02,17,2.30
2015,01,30,02,18,2.20
2015,01,30,02,19,2.20
2015,01,30,02,20,2.20
2015,01,30,02,21,2.20
2015,01,30,02,22,2.20
2015,01,30,02,23,2.20
2015,01,30,02,24,2.20
2015,01,30,02,25,2.20
2015,01,30,02,26,2.20
2015,01,30,02,27,2.20
2015,01,30,02,28,2.20
2015,01,30,02,29,2.20
2015,01,30,02,30,2.20
2015,01,30,02,31,2.20
2015,01,30,02,32,2.20
2015,01,30,02,33,2.20
2015,01,30,02,34,2.20
2015,01,30,02,35,2.20
2015,01,30,02,36,2.20
2015,01,30,02,37,2.20
2015,01,30,02,38,2.20
2015,01,30,02,39,2.10
2015,01,30,02,40,2.10
2015,01,30,02,41,2.00
2015,01,30,02,42,2.00
2015,01,30,02,43,2.00
2015,01,30,02,44,2.00
2015,01,30,02,45,2.00
2015,01,30,02,46,2.00
2015,01,30,02,47,2.00
2015,01,30,02,48,2.00
2015,01,30,02,49,2.00
2015,01,30,02,50,2.00
2015,01,30,02,51,2.10
2015,01,30,02,52,2.10
2015,01,30,02,53,2.10
2015,01,30,02,54,2.10
2015,01,30,02,55,2.10
2015,01,30,02,56,2.10
2015,01,30,02,57,2.10
2015,01,30,02,58,2.10
2015,01,30,02,59,2.10
2015,01,30,03,00,2.10
2015,01,30,03,01,2.10
2015,01,30,03,02,2.10
2015,01,30,03,03,2.10
2015,01,30,03,04,2.10
2015,01,30,03,05,2.00
2015,01,30,03,06,2.00
2015,01,30,03,07,2.00
2015,01,30,03,08,2.00
2015,01,30,03,09,2.00
2015,01,30,03,10,2.00
2015,01,30,03,11,2.00
2015,01,30,03,12,1.90
2015,01,30,03,13,1.90
2015,01,30,03,14,1.90
2015,01,30,03,15,1.90
2015,01,30,03,16,1.80
2015,01,30,03,17,1.80
2015,01,30,03,18,1.80
2015,01,30,03,19,1.80
2015,01,30,03,20,1.80
2015,01,30,03,21,1.80
2015,01,30,03,22,1.80
2015,01,30,03,23,1.80
2015,01,30,03,24,1.80
2015,01,30,03,25,1.80
2015,01,30,03,26,1.90
2015,01,30,03,27,1.90
2015,01,30,03,28,1.90
2015,01,30,03,29,1.90
2015,01,30,03,30,1.90
2015,01,30,03,31,1.90
2015,01,30,03,32,1.90
2015,01,30,03,33,1.90
2015,01,30,03,34,1.90
2015,01,30,03,35,1.90
2015,01,30,03,36,1.90
2015,01,30,03,37,1.90
2015,01,30,03,38,1.90
2015,01,30,03,39,1.90
2015,01,30,03,40,1.90
2015,01,30,03,41,1.90
2015,01,30,03,42,1.90
2015,01,30,03,43,1.90
2015,01,30,03,44,1.90
2015,01,30,03,45,1.90
2015,01,30,03,46,1.90
2015,01,30,03,47,1.80
2015,01,30,03,48,1.80
2015,01,30,03,49,1.80
2015,01,30,03,50,1.80
2015,01,30,03,51,1.80
2015,01,30,03,52,1.80
2015,01,30,03,53,1.80
2015,01,30,03,54,1.80
2015,01,30,03,55,1.80
2015,01,30,03,56,1.80
2015,01,30,03,57,1.80
2015,01,30,03,58,1.80
2015,01,30,03,59,1.80
2015,01,30,04,00,1.80
2015,01,30,04,01,1.80
2015,01,30,04,02,1.80
2015,01,30,04,03,1.80
2015,01,30,04,04,1.80
2015,01,30,04,05,1.80
2015,01,30,04,06,1.80
2015,01,30,04,07,1.80
2015,01,30,04,08,1.80
2015,01,30,04,09,1.80
2015,01,30,04,10,1.80
2015,01,30,04,11,1.80
2015,01,30,04,12,1.80
2015,01,30,04,13,1.80
2015,01,30,04,14,1.80
2015,01,30,04,15,1.80
2015,01,30,04,16,1.70
2015,01,30,04,17,1.70
2015,01,30,04,18,1.70
2015,01,30,04,19,1.70
2015,01,30,04,20,1.70
2015,01,30,04,21,1.70
2015,01,30,04,22,1.70
2015,01,30,04,23,1.70
2015,01,30,04,24,1.70
2015,01,30,04,25,1.70
2015,01,30,04,26,1.70
2015,01,30,06,07,0.80
2015,01,30,06,08,0.80
2015,01,30,06,09,0.80
2015,01,30,06,10,0.80
2015,01,30,06,11,0.80
2015,01,30,06,12,0.80
2015,01,30,06,13,0.80
2015,01,30,06,14,0.80
2015,01,30,06,15,0.80
2015,01,30,06,16,0.80
2015,01,30,06,17,0.80
2015,01,30,06,18,0.80
2015,01,30,06,19,0.80
2015,01,30,06,20,0.80
2015,01,30,06,21,0.80
2015,01,30,06,22,0.80
2015,01,30,06,23,0.80
2015,01,30,06,24,0.80
2015,01,30,06,25,0.80
2015,01,30,06,26,0.80
2015,01,30,06,27,0.80
2015,01,30,06,28,0.80
2015,01,30,06,29,0.80
2015,01,30,06,30,0.80
2015,01,30,06,31,0.80
2015,01,30,06,32,0.80
2015,01,30,06,33,0.80
2015,01,30,06,34,0.80
2015,01,30,06,35,0.80
2015,01,30,06,36,0.80
2015,01,30,06,37,0.80
2015,01,30,06,38,0.80
2015,01,30,06,39,0.80
2015,01,30,06,40,0.80
2015,01,30,06,41,0.80
2015,01,30,06,42,0.80
2015,01,30,06,43,0.80
2015,01,30,06,44,0.70
2015,01,30,06,45,0.70
2015,01,30,06,46,0.60
2015,01,30,06,47,0.60
2015,01,30,06,48,0.60
2015,01,30,06,49,0.60
2015,01,30,06,50,0.50
2015,01,30,06,51,0.50
2015,01,30,06,52,0.50
2015,01,30,06,53,0.50
2015,01,30,06,54,0.50
2015,01,30,06,55,0.50
2015,01,30,06,56,0.50
2015,01,30,06,57,0.50
2015,01,30,06,58,0.50
2015,01,30,06,59,0.50
2015,01,30,07,00,0.50
2015,01,30,07,01,0.50
2015,01,30,07,02,0.50
2015,01,30,07,03,0.50
2015,01,30,07,04,0.50
2015,01,30,07,05,0.50
2015,01,30,07,06,0.50
2015,01,30,07,07,0.50
2015,01,30,07,08,0.50
2015,01,30,07,09,0.50
2015,01,30,07,10,0.50
2015,01,30,07,11,0.40
2015,01,30,07,12,0.40
2015,01,30,07,13,0.40
2015,01,30,07,14,0.40
2015,01,30,07,15,0.50
2015,01,30,07,16,0.50
2015,01,30,07,17,0.50
2015,01,30,07,18,0.50
2015,01,30,07,19,0.50
2015,01,30,07,20,0.50
2015,01,30,07,21,0.60
2015,01,30,07,22,0.60
2015,01,30,07,23,0.60
2015,01,30,07,24,0.60
2015,01,30,07,25,0.60
2015,01,30,07,26,0.60
2015,01,30,07,27,0.60
2015,01,30,07,28,0.60
2015,01,30,07,29,0.60
2015,01,30,07,30,0.50
2015,01,30,07,31,0.50
2015,01,30,07,32,0.50
2015,01,30,07,33,0.50
2015,01,30,07,34,0.50
2015,01,30,07,35,0.50
2015,01,30,07,36,0.50
2015,01,30,07,37,0.50
2015,01,30,07,38,0.40
2015,01,30,07,39,0.40
2015,01,30,07,40,0.40
2015,01,30,07,41,0.40
2015,01,30,07,42,0.40
2015,01,30,07,43,0.40
2015,01,30,07,44,0.40
2015,01,30,07,45,0.40
2015,01,30,07,46,0.40
2015,01,30,07,47,0.40
2015,01,30,07,48,0.40
2015,01,30,07,49,0.40
2015,01,30,07,50,0.40
2015,01,30,07,51,0.40
2015,01,30,07,52,0.40
2015,01,30,07,53,0.40
2015,01,30,07,54,0.40
2015,01,30,07,55,0.40
2015,01,30,07,56,0.40
2015,01,30,07,57,0.40
2015,01,30,07,58,0.40
2015,01,30,07,59,0.40
2015,01,30,08,00,0.40
2015,01,30,08,01,0.40
2015,01,30,08,02,0.50
2015,01,30,08,03,0.50
2015,01,30,08,04,0.50
2015,01,30,08,05,0.50
2015,01,30,08,06,0.50
2015,01,30,08,07,0.50
2015,01,30,08,08,0.50
2015,01,30,08,09,0.50
2015,01,30,08,10,0.50
2015,01,30,08,11,0.50
2015,01,30,08,12,0.40
2015,01,30,08,13,0.40
2015,01,30,08,14,0.40
2015,01,30,08,15,0.50
2015,01,30,08,16,0.50
2015,01,30,08,17,0.50
2015,01,30,08,18,0.50
2015,01,30,08,19,0.50
2015,01,30,08,20,0.60
2015,01,30,08,21,0.60
2015,01,30,08,22,0.60
2015,01,30,08,23,0.60
2015,01,30,08,24,0.80
2015,01,30,08,25,0.80
2015,01,30,08,26,0.80
2015,01,30,08,27,0.90
2015,01,30,08,28,0.90
2015,01,30,08,29,0.90
2015,01,30,08,30,1.00
2015,01,30,08,31,1.00
2015,01,30,08,32,1.10
2015,01,30,08,33,1.10
2015,01,30,08,34,1.10
2015,01,30,08,35,1.10
2015,01,30,08,36,1.20
2015,01,30,08,37,1.20
2015,01,30,08,38,1.20
2015,01,30,08,39,1.20
2015,01,30,08,40,1.20
2015,01,30,08,41,1.20
2015,01,30,08,42,1.20
2015,01,30,08,43,1.20
2015,01,30,08,44,1.20
2015,01,30,08,45,1.20
2015,01,30,08,46,1.20
2015,01,30,08,47,1.20
2015,01,30,08,48,1.20
2015,01,30,08,49,1.10
2015,01,30,08,50,1.20
2015,01,30,08,51,1.20
2015,01,30,08,52,1.20
2015,01,30,08,53,1.20
2015,01,30,08,54,1.30
2015,01,30,08,55,1.40
2015,01,30,08,56,1.50
2015,01,30,08,57,1.60
2015,01,30,08,58,1.70
2015,01,30,08,59,1.80
2015,01,30,09,00,1.80
2015,01,30,09,01,2.00
2015,01,30,09,02,2.10
2015,01,30,09,03,2.20
2015,01,30,09,04,2.20
2015,01,30,09,05,2.30
2015,01,30,09,06,2.40
2015,01,30,09,07,2.40
2015,01,30,09,08,2.50
2015,01,30,09,09,2.60
2015,01,30,09,10,2.70
2015,01,30,09,11,2.70
2015,01,30,09,12,2.80
2015,01,30,09,13,2.90
2015,01,30,09,14,2.90
2015,01,30,09,15,2.90
2015,01,30,09,16,2.90
2015,01,30,09,17,2.90
2015,01,30,09,18,2.90
2015,01,30,09,19,2.90
2015,01,30,09,20,2.90
2015,01,30,09,21,2.90
2015,01,30,09,22,2.90
2015,01,30,09,23,2.90
2015,01,30,09,24,2.90
2015,01,30,09,25,2.90
2015,01,30,09,26,2.90
2015,01,30,09,27,2.90
2015,01,30,09,28,2.90
2015,01,30,09,29,2.90
2015,01,30,09,30,2.90
2015,01,30,09,31,2.90
2015,01,30,09,32,2.90
2015,01,30,09,33,2.90
2015,01,30,09,34,2.90
2015,01,30,09,35,3.00
2015,01,30,09,36,3.10
2015,01,30,09,37,3.10
2015,01,30,09,38,3.10
2015,01,30,09,39,3.20
2015,01,30,09,40,3.30
2015,01,30,09,41,3.30
2015,01,30,09,42,3.40
2015,01,30,09,43,3.40
2015,01,30,09,44,3.50
2015,01,30,09,45,3.50
2015,01,30,09,46,3.50
2015,01,30,09,47,3.60
2015,01,30,09,48,3.60
2015,01,30,09,49,3.60
2015,01,30,09,50,3.70
2015,01,30,09,51,3.70
2015,01,30,09,52,3.70
2015,01,30,09,53,3.80
2015,01,30,09,54,3.80
2015,01,30,09,55,3.80
2015,01,30,09,56,3.80
2015,01,30,09,57,3.80
2015,01,30,09,58,3.90
2015,01,30,09,59,4.00
2015,01,30,10,00,4.00
2015,01,30,10,01,4.10
2015,01,30,10,02,4.20
2015,01,30,10,03,4.20
2015,01,30,10,04,4.30
2015,01,30,10,05,4.40
2015,01,30,10,06,4.50
2015,01,30,10,07,4.50
2015,01,30,10,08,4.60
2015,01,30,10,09,4.60
2015,01,30,10,10,4.70
2015,01,30,10,11,4.80
2015,01,30,10,12,4.80
2015,01,30,10,13,4.90
2015,01,30,10,14,4.90
2015,01,30,10,15,5.00
2015,01,30,10,16,5.10
2015,01,30,10,17,5.10
2015,01,30,10,18,5.20
2015,01,30,10,19,5.30
2015,01,30,10,20,5.30
2015,01,30,10,21,5.40
2015,01,30,10,22,5.40
2015,01,30,10,23,5.50
2015,01,30,10,24,5.60
2015,01,30,10,25,5.70
2015,01,30,10,26,5.80
2015,01,30,10,27,5.90
2015,01,30,10,28,6.00
2015,01,30,10,29,6.10
2015,01,30,10,30,6.20
2015,01,30,10,31,6.30
2015,01,30,10,32,6.40
2015,01,30,10,33,6.50
2015,01,30,10,34,6.60
2015,01,30,10,35,6.60
2015,01,30,10,36,6.70
2015,01,30,10,37,6.70
2015,01,30,10,38,6.80
2015,01,30,10,39,6.90
2015,01,30,10,40,7.00
2015,01,30,10,41,7.00
2015,01,30,10,42,7.10
2015,01,30,10,43,7.20
2015,01,30,10,44,7.20
2015,01,30,10,45,7.30
2015,01,30,10,46,7.30
2015,01,30,10,47,7.30
2015,01,30,10,48,7.30
2015,01,30,10,49,7.30
2015,01,30,10,50,7.30
2015,01,30,10,51,7.30
2015,01,30,10,52,7.40
2015,01,30,10,53,7.40
2015,01,30,10,54,7.40
2015,01,30,10,55,7.40
2015,01,30,10,56,7.40
2015,01,30,10,57,7.50
2015,01,30,10,58,7.50
2015,01,30,10,59,7.60
2015,01,30,11,00,7.60
2015,01,30,11,01,7.70
2015,01,30,11,02,7.80
2015,01,30,11,03,7.80
2015,01,30,11,04,7.80
2015,01,30,11,05,7.90
2015,01,30,11,06,7.90
2015,01,30,11,07,8.00
2015,01,30,11,08,8.00
2015,01,30,11,09,8.10
2015,01,30,11,10,8.10
2015,01,30,11,11,8.20
2015,01,30,11,12,8.20
2015,01,30,11,13,8.30
2015,01,30,11,14,8.40
2015,01,30,11,15,8.50
2015,01,30,11,16,8.50
2015,01,30,11,17,8.50
2015,01,30,11,18,8.50
2015,01,30,11,19,8.50
2015,01,30,11,20,8.50
2015,01,30,11,21,8.50
2015,01,30,11,22,8.40
2015,01,30,11,23,8.40
2015,01,30,11,24,8.40
2015,01,30,11,25,8.50
2015,01,30,11,26,8.50
2015,01,30,11,27,8.50
2015,01,30,11,28,8.40
2015,01,30,11,29,8.40
2015,01,30,11,30,8.50
2015,01,30,11,31,8.50
2015,01,30,11,32,8.50
2015,01,30,11,33,8.60
2015,01,30,11,34,8.60
2015,01,30,11,35,8.60
2015,01,30,11,36,8.70
2015,01,30,11,37,8.70
2015,01,30,11,38,8.70
2015,01,30,11,39,8.70
2015,01,30,11,40,8.80
2015,01,30,11,41,8.80
2015,01,30,11,42,8.90
2015,01,30,11,43,8.90
2015,01,30,11,44,8.90
2015,01,30,11,45,9.00
2015,01,30,11,46,9.10
2015,01,30,11,47,9.20
2015,01,30,11,48,9.20
2015,01,30,11,49,9.30
2015,01,30,11,50,9.40
2015,01,30,11,51,9.40
2015,01,30,11,52,9.50
2015,01,30,11,53,9.60
2015,01,30,11,54,9.60
2015,01,30,11,55,9.70
2015,01,30,11,56,9.70
2015,01,30,11,57,9.70
2015,01,30,11,58,9.70
2015,01,30,11,59,9.70
2015,01,30,12,00,9.60
2015,01,30,12,01,9.50
2015,01,30,12,02,9.50
2015,01,30,12,03,9.40
2015,01,30,12,04,9.40
2015,01,30,12,05,9.30
2015,01,30,12,06,9.30
2015,01,30,12,07,9.30
2015,01,30,12,08,9.30
2015,01,30,12,09,9.30
2015,01,30,12,10,9.30
2015,01,30,12,11,9.30
2015,01,30,12,12,9.30
2015,01,30,12,13,9.30
2015,01,30,12,14,9.40
2015,01,30,12,15,9.40
2015,01,30,12,16,9.40
2015,01,30,12,17,9.40
2015,01,30,12,18,9.40
2015,01,30,12,19,9.40
2015,01,30,12,20,9.40
2015,01,30,12,21,9.40
2015,01,30,12,22,9.30
2015,01,30,12,23,9.30
2015,01,30,12,24,9.30
2015,01,30,12,25,9.30
2015,01,30,12,26,9.30
2015,01,30,12,27,9.30
2015,01,30,12,28,9.30
2015,01,30,12,29,9.30
2015,01,30,12,30,9.30
2015,01,30,12,31,9.20
2015,01,30,12,32,9.20
2015,01,30,12,33,9.20
2015,01,30,12,34,9.10
2015,01,30,12,35,9.10
2015,01,30,12,36,9.10
2015,01,30,12,37,9.20
2015,01,30,12,38,9.20
2015,01,30,12,39,9.20
2015,01,30,12,40,9.10
2015,01,30,12,41,9.20
2015,01,30,12,42,9.20
2015,01,30,12,43,9.20
2015,01,30,12,44,9.20
2015,01,30,12,45,9.20
2015,01,30,12,46,9.30
2015,01,30,12,47,9.30
2015,01,30,12,48,9.30
2015,01,30,12,49,9.30
2015,01,30,12,50,9.40
2015,01,30,12,51,9.50
2015,01,30,12,52,9.50
2015,01,30,12,53,9.40
2015,01,30,12,54,9.40
2015,01,30,12,55,9.40
2015,01,30,12,56,9.40
2015,01,30,12,57,9.40
2015,01,30,12,58,9.40
2015,01,30,12,59,9.40
2015,01,30,13,00,9.40
2015,01,30,13,01,9.30
2015,01,30,13,02,9.20
2015,01,30,13,03,9.20
2015,01,30,13,04,9.20
2015,01,30,13,05,9.10
2015,01,30,13,06,9.10
2015,01,30,13,07,9.10
2015,01,30,13,08,9.10
2015,01,30,13,09,9.10
2015,01,30,13,10,9.20
2015,01,30,13,11,9.20
2015,01,30,13,12,9.20
2015,01,30,13,13,9.20
2015,01,30,13,14,9.20
2015,01,30,13,15,9.20
2015,01,30,13,16,9.30
2015,01,30,13,17,9.30
2015,01,30,13,18,9.40
2015,01,30,13,19,9.50
2015,01,30,13,20,9.60
2015,01,30,13,21,9.60
2015,01,30,13,22,9.50
2015,01,30,13,23,9.50
2015,01,30,13,24,9.60
2015,01,30,13,25,9.60
2015,01,30,13,26,9.60
2015,01,30,13,27,9.60
2015,01,30,13,28,9.70
2015,01,30,13,29,9.70
2015,01,30,13,30,9.70
2015,01,30,13,31,9.70
2015,01,30,13,32,9.70
2015,01,30,13,33,9.60
2015,01,30,13,34,9.60
2015,01,30,13,35,9.70
2015,01,30,13,36,9.70
2015,01,30,13,37,9.70
2015,01,30,13,38,9.80
2015,01,30,13,39,9.80
2015,01,30,13,40,9.90
2015,01,30,13,41,9.90
2015,01,30,13,42,9.90
2015,01,30,13,43,9.90
2015,01,30,13,44,9.90
2015,01,30,13,45,9.90
2015,01,30,13,46,9.80
2015,01,30,13,47,9.80
2015,01,30,13,48,9.80
2015,01,30,13,49,9.70
2015,01,30,13,50,9.70
2015,01,30,13,51,9.70
2015,01,30,13,52,9.60
2015,01,30,13,53,9.50
2015,01,30,13,54,9.50
2015,01,30,13,55,9.40
2015,01,30,13,56,9.40
2015,01,30,13,57,9.40
2015,01,30,13,58,9.30
2015,01,30,13,59,9.30
2015,01,30,14,00,9.30
2015,01,30,14,01,9.20
2015,01,30,14,02,9.20
2015,01,30,14,03,9.20
2015,01,30,14,04,9.20
2015,01,30,14,05,9.20
2015,01,30,14,06,9.10
2015,01,30,14,07,9.10
2015,01,30,14,08,9.10
2015,01,30,14,09,9.10
2015,01,30,14,10,9.10
2015,01,30,14,11,9.10
2015,01,30,14,12,9.10
2015,01,30,14,13,9.10
2015,01,30,14,14,9.20
2015,01,30,14,15,9.20
2015,01,30,14,16,9.30
2015,01,30,14,17,9.30
2015,01,30,14,18,9.30
2015,01,30,14,19,9.30
2015,01,30,14,20,9.30
2015,01,30,14,21,9.30
2015,01,30,14,22,9.20
2015,01,30,14,23,9.20
2015,01,30,14,24,9.20
2015,01,30,14,25,9.20
2015,01,30,14,26,9.20
2015,01,30,14,27,9.10
2015,01,30,14,28,9.10
2015,01,30,14,29,9.10
2015,01,30,14,30,9.10
2015,01,30,14,31,9.10
2015,01,30,14,32,9.20
2015,01,30,14,33,9.10
2015,01,30,14,34,9.10
2015,01,30,14,35,9.10
2015,01,30,14,36,9.10
2015,01,30,14,37,9.10
2015,01,30,14,38,9.20
2015,01,30,14,39,9.20
2015,01,30,14,40,9.30
2015,01,30,14,41,9.40
2015,01,30,14,42,9.50
2015,01,30,14,43,9.50
2015,01,30,14,44,9.60
2015,01,30,14,45,9.60
2015,01,30,14,46,9.60
2015,01,30,14,47,9.70
2015,01,30,14,48,9.70
2015,01,30,14,49,9.70
2015,01,30,14,50,9.80
2015,01,30,14,51,9.80
2015,01,30,14,52,9.80
2015,01,30,14,53,9.70
2015,01,30,14,54,9.70
2015,01,30,14,55,9.70
2015,01,30,14,56,9.60
2015,01,30,14,57,9.60
2015,01,30,14,58,9.50
2015,01,30,14,59,9.50
2015,01,30,15,00,9.40
2015,01,30,15,01,9.40
2015,01,30,15,02,9.50
2015,01,30,15,03,9.60
2015,01,30,15,04,9.70
2015,01,30,15,05,9.70
2015,01,30,15,06,9.70
2015,01,30,15,07,9.70
2015,01,30,15,08,9.70
2015,01,30,15,09,9.70
2015,01,30,15,10,9.70
2015,01,30,15,11,9.70
2015,01,30,15,12,9.70
2015,01,30,15,13,9.70
2015,01,30,15,14,9.70
2015,01,30,15,15,9.70
2015,01,30,15,16,9.70
2015,01,30,15,17,9.70
2015,01,30,15,18,9.70
2015,01,30,15,19,9.70
2015,01,30,15,20,9.70
2015,01,30,15,21,9.70
2015,01,30,15,22,9.70
2015,01,30,15,23,9.80
2015,01,30,15,24,9.80
2015,01,30,15,25,9.90
2015,01,30,15,26,9.90
2015,01,30,15,27,9.90
2015,01,30,15,28,9.90
2015,01,30,15,29,10.00
2015,01,30,15,30,10.10
2015,01,30,15,31,10.10
2015,01,30,15,32,10.10
2015,01,30,15,33,10.20
2015,01,30,15,34,10.20
2015,01,30,15,35,10.10
2015,01,30,15,36,10.00
2015,01,30,15,37,9.90
2015,01,30,15,38,9.90
2015,01,30,15,39,9.80
2015,01,30,15,40,9.80
2015,01,30,15,41,9.70
2015,01,30,15,42,9.70
2015,01,30,15,43,9.70
2015,01,30,15,44,9.60
2015,01,30,15,45,9.60
2015,01,30,15,46,9.60
2015,01,30,15,47,9.60
2015,01,30,15,48,9.50
2015,01,30,15,49,9.50
2015,01,30,15,50,9.50
2015,01,30,15,51,9.50
2015,01,30,15,52,9.50
2015,01,30,15,53,9.60
2015,01,30,15,54,9.60
2015,01,30,15,55,9.70
2015,01,30,15,56,9.70
2015,01,30,15,57,9.80
2015,01,30,15,58,9.80
2015,01,30,15,59,9.90
2015,01,30,16,00,9.90
2015,01,30,16,01,9.90
2015,01,30,16,02,9.90
2015,01,30,16,03,9.90
2015,01,30,16,04,9.90
2015,01,30,16,05,9.90
2015,01,30,16,06,9.90
2015,01,30,16,07,9.90
2015,01,30,16,08,9.90
2015,01,30,16,09,9.90
2015,01,30,16,10,9.90
2015,01,30,16,11,9.90
2015,01,30,16,12,9.80
2015,01,30,16,13,9.80
2015,01,30,16,14,9.70
2015,01,30,16,15,9.60
2015,01,30,16,16,9.50
2015,01,30,16,17,9.50
2015,01,30,16,18,9.50
2015,01,30,16,19,9.40
2015,01,30,16,20,9.40
2015,01,30,16,21,9.30
2015,01,30,16,22,9.20
2015,01,30,16,23,9.20
2015,01,30,16,24,9.20
2015,01,30,16,25,9.20
2015,01,30,16,26,9.20
2015,01,30,16,27,9.00
2015,01,30,16,28,9.10
2015,01,30,16,29,9.10
2015,01,30,16,30,9.10
2015,01,30,16,31,9.10
2015,01,30,16,32,9.20
2015,01,30,16,33,9.20
2015,01,30,16,34,9.20
2015,01,30,16,35,9.20
2015,01,30,16,36,9.20
2015,01,30,16,37,9.20
2015,01,30,16,38,9.20
2015,01,30,16,39,9.10
2015,01,30,16,40,9.10
2015,01,30,16,41,9.10
2015,01,30,16,42,9.10
2015,01,30,16,43,9.10
2015,01,30,16,44,9.10
2015,01,30,16,45,9.10
2015,01,30,16,46,9.10
2015,01,30,16,47,9.10
2015,01,30,16,48,9.10
2015,01,30,16,49,9.00
2015,01,30,16,50,9.00
2015,01,30,16,51,9.00
2015,01,30,16,52,8.90
2015,01,30,16,53,8.90
2015,01,30,16,54,8.90
2015,01,30,16,55,8.90
2015,01,30,16,56,8.90
2015,01,30,16,57,8.80
2015,01,30,16,58,8.80
2015,01,30,16,59,8.80
2015,01,30,17,00,8.80
2015,01,30,17,01,8.70
2015,01,30,17,02,8.70
2015,01,30,17,03,8.70
2015,01,30,17,04,8.70
2015,01,30,17,05,8.70
2015,01,30,17,06,8.70
2015,01,30,17,07,8.70
2015,01,30,17,08,8.70
2015,01,30,17,09,8.70
2015,01,30,17,10,8.70
2015,01,30,17,11,8.70
2015,01,30,17,12,8.70
2015,01,30,17,13,8.70
2015,01,30,17,14,8.70
2015,01,30,17,15,8.70
2015,01,30,17,16,8.70
2015,01,30,17,17,8.70
2015,01,30,17,18,8.70
2015,01,30,17,19,8.70
2015,01,30,17,20,8.70
2015,01,30,17,21,8.70
2015,01,30,17,22,8.70
2015,01,30,17,23,8.60
2015,01,30,17,24,8.60
2015,01,30,17,25,8.60
2015,01,30,17,26,8.60
2015,01,30,17,27,8.60
2015,01,30,17,28,8.60
2015,01,30,17,29,8.60
2015,01,30,17,30,8.60
2015,01,30,17,31,8.60
2015,01,30,17,32,8.60
2015,01,30,17,33,8.70
2015,01,30,17,34,8.70
2015,01,30,17,35,8.70
2015,01,30,17,36,8.70
2015,01,30,17,37,8.70
2015,01,30,17,38,8.60
2015,01,30,17,39,8.60
2015,01,30,17,40,8.60
2015,01,30,17,41,8.50
2015,01,30,17,42,8.50
2015,01,30,17,43,8.50
2015,01,30,17,44,8.50
2015,01,30,17,45,8.40
2015,01,30,17,46,8.40
2015,01,30,17,47,8.40
2015,01,30,17,48,8.40
2015,01,30,17,49,8.30
2015,01,30,17,50,8.30
2015,01,30,17,51,8.30
2015,01,30,17,52,8.30
2015,01,30,17,53,8.30
2015,01,30,17,54,8.30
2015,01,30,17,55,8.30
2015,01,30,17,56,8.20
2015,01,30,17,57,8.20
2015,01,30,17,58,8.20
2015,01,30,17,59,8.20
2015,01,30,18,00,8.20
2015,01,30,18,01,8.20
2015,01,30,18,02,8.20
2015,01,30,18,03,8.10
2015,01,30,18,04,8.10
2015,01,30,18,05,8.10
2015,01,30,18,06,8.00
2015,01,30,18,07,8.00
2015,01,30,18,08,8.00
2015,01,30,18,09,7.90
2015,01,30,18,10,7.90
2015,01,30,18,11,7.90
2015,01,30,18,12,7.90
2015,01,30,18,13,7.90
2015,01,30,18,14,7.80
2015,01,30,18,15,7.80
2015,01,30,18,16,7.80
2015,01,30,18,17,7.80
2015,01,30,18,18,7.80
2015,01,30,18,19,7.80
2015,01,30,18,20,7.80
2015,01,30,18,21,7.80
2015,01,30,18,22,7.70
2015,01,30,18,23,7.70
2015,01,30,18,24,7.70
2015,01,30,18,25,7.70
2015,01,30,18,26,7.60
2015,01,30,18,27,7.60
2015,01,30,18,28,7.60
2015,01,30,18,29,7.60
2015,01,30,18,30,7.60
2015,01,30,18,31,7.50
2015,01,30,18,32,7.50
2015,01,30,18,33,7.50
2015,01,30,18,34,7.50
2015,01,30,18,35,7.50
2015,01,30,18,36,7.50
2015,01,30,18,37,7.50
2015,01,30,18,38,7.50
2015,01,30,18,39,7.40
2015,01,30,18,40,7.40
2015,01,30,18,41,7.40
2015,01,30,18,42,7.40
2015,01,30,18,43,7.40
2015,01,30,18,44,7.30
2015,01,30,18,45,7.30
2015,01,30,18,46,7.30
2015,01,30,18,47,7.30
2015,01,30,18,48,7.30
2015,01,30,18,49,7.30
2015,01,30,18,50,7.30
2015,01,30,18,51,7.30
2015,01,30,18,52,7.20
2015,01,30,18,53,7.20
2015,01,30,18,54,7.20
2015,01,30,18,55,7.20
2015,01,30,18,56,7.10
2015,01,30,18,57,7.10
2015,01,30,18,58,7.00
2015,01,30,18,59,7.00
2015,01,30,19,00,7.00
2015,01,30,19,01,7.00
2015,01,30,19,02,6.90
2015,01,30,19,03,6.90
2015,01,30,19,04,6.90
2015,01,30,19,05,6.80
2015,01,30,19,06,6.80
2015,01,30,19,07,6.80
2015,01,30,19,08,6.80
2015,01,30,19,09,6.80
2015,01,30,19,10,6.80
2015,01,30,19,11,6.70
2015,01,30,19,12,6.70
2015,01,30,19,13,6.70
2015,01,30,19,14,6.70
2015,01,30,19,15,6.60
2015,01,30,19,16,6.60
2015,01,30,19,17,6.60
2015,01,30,19,18,6.60
2015,01,30,19,19,6.60
2015,01,30,19,20,6.60
2015,01,30,19,21,6.60
2015,01,30,19,22,6.60
2015,01,30,19,23,6.60
2015,01,30,19,24,6.60
2015,01,30,19,25,6.60
2015,01,30,19,26,6.60
2015,01,30,19,27,6.30
2015,01,30,19,28,6.30
2015,01,30,19,29,6.30
2015,01,30,19,30,6.20
2015,01,30,19,31,6.20
2015,01,30,19,32,6.20
2015,01,30,19,33,6.20
2015,01,30,19,34,6.20
2015,01,30,19,35,6.20
2015,01,30,19,36,6.10
2015,01,30,19,37,6.10
2015,01,30,19,38,6.10
2015,01,30,19,39,6.10
2015,01,30,19,40,6.00
2015,01,30,19,41,6.00
2015,01,30,19,42,6.00
2015,01,30,19,43,5.90
2015,01,30,19,44,5.90
2015,01,30,19,45,5.90
2015,01,30,19,46,5.80